TimeEST,TemperatureF,Dew PointF,Humidity,Sea Level PressureIn,VisibilityMPH,Wind Direction,Wind SpeedMPH,Gust SpeedMPH,PrecipitationIn,Events,Conditions,WindDirDegrees,DateUTC
12:15 AM,66.2,62.6,88,30.11,-9999.0,Calm,Calm,-,N/A,,Unknown,0,2013-02-12 05:15:00
12:35 AM,64.4,60.8,88,30.11,-9999.0,Calm,Calm,-,N/A,,Unknown,0,2013-02-12 05:35:00
12:55 AM,64.4,62.6,94,30.11,-9999.0,Calm,Calm,-,N/A,,Unknown,0,2013-02-12 05:55:00
1:15 AM,64.4,60.8,88,30.12,-9999.0,Calm,Calm,-,N/A,,Unknown,0,2013-02-12 06:15:00
1:35 AM,62.6,60.8,94,30.11,-9999.0,Calm,Calm,-,N/A,,Unknown,0,2013-02-12 06:35:00
1:55 AM,62.6,60.8,94,30.10,-9999.0,Calm,Calm,-,N/A,,Unknown,0,2013-02-12 06:55:00
2:15 AM,62.6,62.6,100,30.10,-9999.0,Calm,Calm,-,N/A,,Unknown,0,2013-02-12 07:15:00
2:35 AM,62.6,60.8,94,30.09,-9999.0,Calm,Calm,-,N/A,,Unknown,0,2013-02-12 07:35:00
2:55 AM,62.6,60.8,94,30.09,-9999.0,Calm,Calm,-,N/A,,Unknown,0,2013-02-12 07:55:00
3:15 AM,64.4,62.6,94,30.09,-9999.0,Calm,Calm,-,N/A,,Unknown,0,2013-02-12 08:15:00
3:35 AM,64.4,62.6,94,30.09,-9999.0,Calm,Calm,-,N/A,,Mostly Cloudy,0,2013-02-12 08:35:00
3:55 AM,64.4,62.6,94,30.09,-9999.0,Calm,Calm,-,N/A,,Unknown,0,2013-02-12 08:55:00
4:15 AM,64.4,62.6,94,30.09,-9999.0,Calm,Calm,-,N/A,,Unknown,0,2013-02-12 09:15:00
4:35 AM,64.4,62.6,94,30.08,-9999.0,Calm,Calm,-,N/A,,Unknown,0,2013-02-12 09:35:00
4:55 AM,62.6,60.8,94,30.09,-9999.0,Calm,Calm,-,N/A,,Unknown,0,2013-02-12 09:55:00
5:15 AM,62.6,62.6,100,30.09,-9999.0,Calm,Calm,-,N/A,,Unknown,0,2013-02-12 10:15:00
5:35 AM,62.6,60.8,94,30.09,-9999.0,Calm,Calm,-,N/A,,Unknown,0,2013-02-12 10:35:00
5:55 AM,62.6,60.8,94,30.09,-9999.0,Calm,Calm,-,N/A,,Unknown,0,2013-02-12 10:55:00
6:15 AM,62.6,60.8,94,30.09,-9999.0,Calm,Calm,-,N/A,,Unknown,0,2013-02-12 11:15:00
6:35 AM,60.8,60.8,100,30.10,-9999.0,Calm,Calm,-,N/A,,Unknown,0,2013-02-12 11:35:00
6:55 AM,60.8,60.8,100,30.10,-9999.0,Calm,Calm,-,N/A,,Unknown,0,2013-02-12 11:55:00
7:15 AM,60.8,60.8,100,30.10,-9999.0,Calm,Calm,-,N/A,,Unknown,0,2013-02-12 12:15:00
7:35 AM,62.6,62.6,100,30.11,-9999.0,South,3.5,-,N/A,,Unknown,180,2013-02-12 12:35:00
7:55 AM,64.4,64.4,100,30.10,-9999.0,South,5.8,-,N/A,,Unknown,180,2013-02-12 12:55:00
8:15 AM,66.2,64.4,94,30.11,-9999.0,South,8.1,-,N/A,,Unknown,190,2013-02-12 13:15:00
8:55 AM,71.6,64.4,78,30.12,-9999.0,SSW,13.8,-,N/A,,Clear,200,2013-02-12 13:55:00
9:15 AM,71.6,64.4,78,30.12,-9999.0,SW,10.4,-,N/A,,Clear,220,2013-02-12 14:15:00
9:35 AM,73.4,66.2,78,30.12,-9999.0,SSW,10.4,-,N/A,,Clear,210,2013-02-12 14:35:00
9:55 AM,75.2,66.2,73,30.12,-9999.0,SW,13.8,-,N/A,,Clear,220,2013-02-12 14:55:00
10:15 AM,75.2,66.2,73,30.12,-9999.0,SW,13.8,-,N/A,,Partly Cloudy,220,2013-02-12 15:15:00
10:35 AM,75.2,66.2,73,30.11,-9999.0,SSW,15.0,-,N/A,,Clear,210,2013-02-12 15:35:00
10:55 AM,77.0,64.4,65,30.11,-9999.0,South,13.8,-,N/A,,Clear,190,2013-02-12 15:55:00
11:15 AM,78.8,64.4,61,30.10,-9999.0,SSW,12.7,19.6,N/A,,Clear,200,2013-02-12 16:15:00
11:35 AM,78.8,64.4,61,30.09,-9999.0,SW,12.7,20.7,N/A,,Partly Cloudy,220,2013-02-12 16:35:00
11:55 AM,80.6,64.4,58,30.08,-9999.0,SSW,11.5,18.4,N/A,,Scattered Clouds,200,2013-02-12 16:55:00
12:15 PM,80.6,62.6,54,30.06,-9999.0,South,12.7,18.4,N/A,,Partly Cloudy,190,2013-02-12 17:15:00
12:35 PM,80.6,62.6,54,30.05,-9999.0,SSW,13.8,19.6,N/A,,Scattered Clouds,210,2013-02-12 17:35:00
12:55 PM,80.6,62.6,54,30.04,-9999.0,SSW,18.4,-,N/A,,Mostly Cloudy,200,2013-02-12 17:55:00
1:15 PM,82.4,62.6,51,30.02,-9999.0,SSW,15.0,19.6,N/A,,Mostly Cloudy,200,2013-02-12 18:15:00
1:35 PM,82.4,62.6,51,30.01,-9999.0,SSW,10.4,17.3,N/A,,Mostly Cloudy,210,2013-02-12 18:35:00
1:55 PM,82.4,62.6,51,30.00,-9999.0,South,13.8,-,N/A,,Scattered Clouds,190,2013-02-12 18:55:00
2:15 PM,80.6,60.8,51,29.99,-9999.0,SSW,9.2,16.1,N/A,,Scattered Clouds,200,2013-02-12 19:15:00
2:35 PM,82.4,60.8,48,29.99,-9999.0,SSW,11.5,18.4,N/A,,Scattered Clouds,210,2013-02-12 19:35:00
2:55 PM,80.6,60.8,51,29.99,-9999.0,SSW,8.1,-,N/A,,Partly Cloudy,200,2013-02-12 19:55:00
3:15 PM,80.6,60.8,51,29.98,-9999.0,SW,4.6,-,N/A,,Scattered Clouds,220,2013-02-12 20:15:00
3:35 PM,82.4,60.8,48,29.97,-9999.0,SW,9.2,-,N/A,,Partly Cloudy,220,2013-02-12 20:35:00
3:55 PM,82.4,60.8,48,29.96,-9999.0,SSW,10.4,-,N/A,,Partly Cloudy,210,2013-02-12 20:55:00
4:15 PM,82.4,60.8,48,29.96,-9999.0,SSW,8.1,-,N/A,,Scattered Clouds,210,2013-02-12 21:15:00
4:35 PM,82.4,60.8,48,29.96,-9999.0,SSW,9.2,-,N/A,,Scattered Clouds,210,2013-02-12 21:35:00
4:55 PM,82.4,60.8,48,29.95,-9999.0,SSW,10.4,-,N/A,,Clear,210,2013-02-12 21:55:00
5:15 PM,80.6,60.8,51,29.95,-9999.0,SSW,8.1,-,N/A,,Clear,210,2013-02-12 22:15:00
5:35 PM,80.6,60.8,51,29.95,-9999.0,SSW,8.1,-,N/A,,Clear,200,2013-02-12 22:35:00
5:55 PM,80.6,60.8,51,29.95,-9999.0,SSW,8.1,-,N/A,,Clear,200,2013-02-12 22:55:00
6:15 PM,78.8,60.8,54,29.94,-9999.0,Calm,Calm,-,N/A,,Clear,0,2013-02-12 23:15:00
6:35 PM,77.0,60.8,57,29.95,-9999.0,South,5.8,-,N/A,,Clear,190,2013-02-12 23:35:00
6:55 PM,75.2,60.8,61,29.94,-9999.0,Calm,Calm,-,N/A,,Clear,0,2013-02-12 23:55:00
7:15 PM,75.2,60.8,61,29.94,-9999.0,South,3.5,-,N/A,,Clear,180,2013-02-13 00:15:00
7:35 PM,73.4,60.8,65,29.95,-9999.0,Calm,Calm,-,N/A,,Clear,0,2013-02-13 00:35:00
7:55 PM,73.4,60.8,65,29.96,-9999.0,Calm,Calm,-,N/A,,Clear,0,2013-02-13 00:55:00
8:15 PM,75.2,62.6,65,29.96,-9999.0,SW,8.1,-,N/A,,Clear,220,2013-02-13 01:15:00
9:15 PM,73.4,62.6,69,29.96,-9999.0,SW,6.9,-,N/A,,Clear,220,2013-02-13 02:15:00
9:35 PM,73.4,62.6,69,29.97,-9999.0,SW,6.9,-,N/A,,Clear,220,2013-02-13 02:35:00
9:55 PM,73.4,64.4,73,29.97,-9999.0,SW,6.9,-,N/A,,Clear,230,2013-02-13 02:55:00
10:15 PM,71.6,64.4,78,29.97,-9999.0,SW,8.1,-,N/A,,Clear,220,2013-02-13 03:15:00
10:35 PM,71.6,64.4,78,29.97,-9999.0,SSW,8.1,-,N/A,,Clear,210,2013-02-13 03:35:00
10:55 PM,69.8,64.4,83,29.97,-9999.0,SW,8.1,-,N/A,,Clear,220,2013-02-13 03:55:00
11:15 PM,69.8,64.4,83,29.97,-9999.0,SSW,8.1,-,N/A,,Clear,210,2013-02-13 04:15:00
11:55 PM,69.8,66.2,88,29.97,-9999.0,SSW,10.4,-,N/A,,Unknown,200,2013-02-13 04:55:00